HORIZONS-3E

Last updated on Thu Nov 06 2025 00:02:49 GMT+0000 (Coordinated Universal Time)

1 43633U 18074B 25308.71642081 -.00000019 00000+0 00000+0 0 9995 2 43633 0.0164 229.2003 0001324 72.8406 169.1026 1.00267626 26099
UTC large
Height (km)
Speed (km/s)
/
Latitude / Longitude
Inclination (degrees)
Orbital Period (minutes)
Azimuth
Elevation
Range (km)
Doppler Factor

Next 0 passes for location: London (51.5072 / 0.1276)

Sorry there are no passes over London.